Location: Dyersburg
(36.0438°N, 89.3789°W)
Time: 16:10:51
(UTC+00:00)

Tiros 1 despin weight - All Passes

Search period start: 19 February 2020 00:00
Search period end: 29 February 2020 00:00
Orbit: 594 x 642 km, 48.2° (Epoch: 19 February)

Date Brightness Start Highest point End Pass type
(mag) Time Alt. Az. Time Alt. Az. Time Alt. Az.
19 Feb - 06:05:47 10° SSW 06:09:36 28° SE 06:13:24 10° ENE night (unlit)
19 Feb - 07:46:40 10° WSW 07:50:58 49° NNW 07:55:17 10° NE night (unlit)
19 Feb - 09:30:06 10° WNW 09:33:17 19° N 09:36:28 10° NE visible
19 Feb - 11:12:58 10° NW 11:16:05 18° N 11:19:12 10° NE visible
19 Feb - 12:54:12 10° NW 12:58:28 45° NNE 13:02:44 10° ESE daylight
19 Feb - 14:35:57 10° WNW 14:39:54 32° SW 14:43:53 10° SSE daylight
20 Feb - 06:21:35 10° SW 06:25:59 59° SE 06:30:19 10° ENE night (unlit)
20 Feb - 08:03:47 10° W 08:07:43 30° NNW 08:11:38 10° NE night (unlit)
20 Feb - 09:47:26 10° NW 09:50:19 17° N 09:53:12 10° NE visible
20 Feb - 11:29:29 10° NW 11:33:03 23° NNE 11:36:38 10° ENE visible
20 Feb - 13:10:39 10° NW 13:15:05 83° NE 13:19:33 10° SE daylight
20 Feb - 14:53:34 10° W 14:56:10 15° SW 14:58:46 10° SSW daylight
21 Feb - 04:58:13 10° S 05:01:19 19° SE 05:04:24 10° E night (unlit)
21 Feb - 06:38:02 10° WSW 06:42:29 71° NNW 06:46:54 10° NE night (unlit)
21 Feb - 08:21:09 10° WNW 08:24:36 22° NNW 08:28:03 10° NE night (unlit)
21 Feb - 10:04:27 10° NW 10:07:22 17° N 10:10:18 10° NE visible
21 Feb - 11:45:53 10° NW 11:49:55 34° NNE 11:53:57 10° E visible
21 Feb - 13:27:17 10° WNW 13:31:34 49° SW 13:35:52 10° SSE daylight
22 Feb - 05:13:28 10° SSW 05:17:37 38° SE 05:21:45 10° ENE night (unlit)
22 Feb - 06:54:58 10° W 06:59:09 39° NNW 07:03:19 10° NE night (unlit)
22 Feb - 08:38:34 10° NW 08:41:36 18° N 08:44:37 10° NE visible
22 Feb - 10:21:06 10° NW 10:24:23 20° NNE 10:27:40 10° ENE visible
22 Feb - 12:02:16 10° NW 12:06:38 57° NNE 12:10:59 10° ESE visible
22 Feb - 13:44:22 10° W 13:47:54 24° SW 13:51:27 10° S daylight
23 Feb - 03:51:27 10° SSE 03:53:04 12° SE 03:54:41 10° ESE night (unlit)
23 Feb - 05:29:34 10° SW 05:34:03 80° SE 05:38:29 10° NE night (unlit)
23 Feb - 07:12:12 10° WNW 07:15:57 26° NNW 07:19:42 10° NE night (unlit)
23 Feb - 08:55:47 10° NW 08:58:38 17° N 09:01:30 10° NE visible
23 Feb - 10:37:33 10° NW 10:41:19 27° NNE 10:45:04 10° E visible
23 Feb - 12:18:46 10° WNW 12:23:11 75° SW 12:27:36 10° SE daylight
23 Feb - 14:03:06 10° WSW 14:04:07 11° SW 14:05:08 10° SW daylight
24 Feb - 04:05:36 10° S 04:09:18 25° SE 04:12:58 10° ENE night (unlit)
24 Feb - 05:46:13 10° WSW 05:50:37 54° NNW 05:54:59 10° NE night (unlit)
24 Feb - 07:29:37 10° WNW 07:32:53 20° NNW 07:36:09 10° NE night (unlit)
24 Feb - 09:12:38 10° NW 09:15:41 18° N 09:18:44 10° NE visible
24 Feb - 10:53:55 10° NW 10:58:06 41° NNE 11:02:18 10° E visible
24 Feb - 12:35:34 10° WNW 12:39:36 36° SW 12:43:39 10° SSE daylight
25 Feb - 04:21:16 10° SW 04:25:39 53° SE 04:30:00 10° ENE night (unlit)
25 Feb - 06:03:18 10° W 06:07:21 33° NNW 06:11:23 10° NE night (unlit)
25 Feb - 07:46:58 10° NW 07:49:54 17° N 07:52:50 10° NE night (unlit)
25 Feb - 09:29:11 10° NW 09:32:40 22° NNE 09:36:09 10° ENE visible
25 Feb - 11:10:20 10° NW 11:14:45 75° NE 11:19:10 10° ESE visible
25 Feb - 12:53:00 10° W 12:55:53 17° SW 12:58:46 10° S daylight
26 Feb - 02:58:09 10° S 03:01:01 17° SE 03:03:53 10° E night (unlit)
26 Feb - 04:37:38 10° WSW 04:42:09 78° NW 04:46:37 10° NE night (unlit)
26 Feb - 06:20:39 10° WNW 06:24:13 23° NNW 06:27:46 10° NE night (unlit)
26 Feb - 08:04:02 10° NW 08:06:57 17° N 08:09:52 10° NE night (unlit)
26 Feb - 09:45:35 10° NW 09:49:32 31° NNE 09:53:30 10° E visible
26 Feb - 11:26:56 10° WNW 11:31:15 55° SW 11:35:34 10° SE visible
27 Feb - 03:13:11 10° SSW 03:17:18 34° SE 03:21:23 10° ENE night (unlit)
27 Feb - 04:54:28 10° W 04:58:47 43° NNW 05:03:03 10° NE night (unlit)
27 Feb - 06:38:03 10° NW 06:41:11 18° N 06:44:17 10° NE night (unlit)
27 Feb - 08:20:45 10° NW 08:23:59 19° NNE 08:27:12 10° ENE night (unlit)
27 Feb - 10:01:57 10° NW 10:06:17 52° NNE 10:10:36 10° ESE visible
27 Feb - 11:43:56 10° WNW 11:47:36 26° SW 11:51:18 10° S visible
28 Feb - 01:51:59 10° SE 01:52:46 10° SE 01:53:35 10° ESE night (unlit)
28 Feb - 03:29:12 10° SW 03:33:42 72° SE 03:38:11 10° ENE night (unlit)
28 Feb - 05:11:41 10° W 05:15:34 28° NNW 05:19:25 10° NE night (unlit)
28 Feb - 06:55:19 10° NW 06:58:13 17° N 07:01:07 10° NE night (unlit)
28 Feb - 08:37:14 10° NW 08:40:56 25° NNE 08:44:37 10° ENE visible
28 Feb - 10:18:26 10° NW 10:22:52 84° SW 10:27:16 10° SE visible
28 Feb - 12:02:05 10° WSW 12:03:50 12° SW 12:05:36 10° SSW visible
